Spokane, WA

5:52 AM PDT on March 30, 2017 (GMT -0700)
Spokane International

Weather History for KGEG - May, 2014

Change the Weather History Date:

Tuesday, May 13, 2014

  Actual Average Record
Temperature  
Mean Temperature 57 °F 54 °F  
Max Temperature 72 °F 66 °F 93 °F (1931)
Min Temperature 42 °F 43 °F 31 °F (1983)
Degree Days  
Heating Degree Days 8 11  
Month to date heating degree days 138 165  
Since 1 July heating degree days 6498 6301  
Cooling Degree Days 0 0  
Month to date cooling degree days 0 0  
Year to date cooling degree days 0 0  
Growing Degree Days 7 (Base 50)    
Moisture  
Dew Point 28 °F    
Average Humidity 43    
Maximum Humidity 70    
Minimum Humidity 15    
Precipitation  
Precipitation 0.00 in 0.05 in 0.51 in (1978)
Month to date precipitation 0.41 0.59  
Year to date precipitation 7.25 6.60  
Snow  
Snow 0.00 in 0.00 in 0.20 in (1999)
Month to date snowfall 0.0 0.1  
Since 1 July snowfall 37.6 44.9  
Snow Depth 0.00 in    
Sea Level Pressure  
Sea Level Pressure 30.38 in    
Wind  
Wind Speed 4 mph (NNE)    
Max Wind Speed 13 mph    
Max Gust Speed 17 mph    
Visibility 10 miles    
Events      
T = Trace of Precipitation, MM = Missing Value Source: NWS Daily Summary

Daily Weather History Graph

Daily Weather History Graph

Search for Another Location

Airport or City:

Trip Planner

Search our weather history database for the weather conditions in past years. The results will help you decide how hot, cold, wet, or windy it might be!

Date:

Astronomy

May. 13, 2014 Rise Set
Actual Time 5:15 AM PDT 8:18 PM PDT
Civil Twilight 4:38 AM PDT 8:55 PM PDT
Nautical Twilight 3:51 AM PDT 9:42 PM PDT
Astronomical Twilight 2:54 AM PDT 10:40 PM PDT
Moon 7:20 PM PDT (5/13) 4:41 AM PDT (5/13)
Length of Visible Light 16h 16m
Length of Day
15h 03m
Waxing Gibbous, 99% of the Moon is Illuminated
May 13
Waxing Gibbous
May 14
Full
May 21
Last Quarter
May 28
New
Jun 5
First Quarter

Hourly Weather History & Observations

Time (PDT) Temp. Windchill Dew Point Humidity Pressure Visibility Wind Dir Wind Speed Gust Speed Precip Events Conditions
12:53 AM 45.0 °F 43.5 °F 28.9 °F 53% 30.38 in 10.0 mi West 3.5 mph - N/A   Partly Cloudy
1:53 AM 46.9 °F - 30.0 °F 52% 30.38 in 10.0 mi Calm Calm - N/A   Partly Cloudy
2:53 AM 45.0 °F - 30.9 °F 58% 30.39 in 10.0 mi Calm Calm - N/A   Partly Cloudy
3:53 AM 46.0 °F - 32.0 °F 58% 30.40 in 10.0 mi Calm Calm - N/A   Partly Cloudy
4:53 AM 43.0 °F 39.5 °F 34.0 °F 71% 30.40 in 10.0 mi ENE 5.8 mph - N/A   Scattered Clouds
5:53 AM 42.8 °F 38.6 °F 33.8 °F 70% 30.40 in 10.0 mi NE 6.9 mph - N/A   Mostly Cloudy
6:53 AM 46.0 °F 41.4 °F 33.1 °F 61% 30.42 in 10.0 mi ENE 9.2 mph - N/A   Overcast
8:53 AM 53.6 °F - 33.8 °F 47% 30.44 in 10.0 mi ENE 9.2 mph - N/A   Mostly Cloudy
9:53 AM 57.0 °F - 34.0 °F 42% 30.43 in 10.0 mi NE 5.8 mph - N/A   Overcast
10:53 AM 62.1 °F - 34.0 °F 35% 30.43 in 10.0 mi NE 4.6 mph - N/A   Mostly Cloudy
11:53 AM 64.9 °F - 28.0 °F 25% 30.42 in 10.0 mi Variable 3.5 mph - N/A   Mostly Cloudy
12:53 PM 68.0 °F - 23.0 °F 18% 30.41 in 10.0 mi North 4.6 mph - N/A   Mostly Cloudy
1:53 PM 69.1 °F - 21.9 °F 17% 30.40 in 10.0 mi Variable 4.6 mph - N/A   Scattered Clouds
2:53 PM 71.1 °F - 21.9 °F 16% 30.38 in 10.0 mi NW 8.1 mph - N/A   Partly Cloudy
3:53 PM 69.1 °F - 19.9 °F 15% 30.37 in 10.0 mi Calm Calm - N/A   Partly Cloudy
4:53 PM 71.1 °F - 21.9 °F 16% 30.36 in 10.0 mi Calm Calm - N/A   Partly Cloudy
5:53 PM 71.1 °F - 24.1 °F 17% 30.35 in 10.0 mi Variable 5.8 mph - N/A   Scattered Clouds
6:53 PM 68.0 °F - 24.1 °F 19% 30.35 in 10.0 mi North 5.8 mph - N/A   Scattered Clouds
7:53 PM 66.9 °F - 21.9 °F 18% 30.33 in 10.0 mi North 3.5 mph - N/A   Partly Cloudy
8:53 PM 64.0 °F - 25.0 °F 23% 30.33 in 10.0 mi Calm Calm - N/A   Partly Cloudy
9:53 PM 55.9 °F - 35.1 °F 45% 30.35 in 10.0 mi SW 3.5 mph - N/A   Partly Cloudy
10:53 PM 55.9 °F - 33.1 °F 42% 30.35 in 10.0 mi SSW 3.5 mph - N/A   Clear
11:53 PM 55.9 °F - 28.9 °F 36% 30.34 in 10.0 mi South 4.6 mph - N/A   Partly Cloudy